Other Public Products
Issued by NWS Grand Forks, ND

Home | Current Version | Previous Version | Text Only | Print | Product List | Glossary On
Versions: 1 2 3 4 5 6 7 8 9 10 11 12 13 14 15 16 17 18 19 20 21 22 23 24 25 26 27 28 29 30 31 32 33 34 35 36 37 38 39 40 41 42 43 44 45 46 47 48 49 50
000
FPUS83 KFGF 230331
OPUFGF
PRAIRIE TO PINES WEATHER ROUNDUP
NATIONAL WEATHER SERVICE EASTERN NORTH DAKOTA/GRAND FORKS ND
1000 PM CDT FRI MAY 22 2015

 **SATELLITE DATA USED TO AUGMENT SKY COVER AT AUTOMATED STATIONS**
 *****  WEATHER ACROSS EASTERN NORTH DAKOTA  *****

CITY           SKY/WX    TMP DP  RH WIND       PRES   REMARKS
GRAND FORKS    PTCLDY    60  44  55 S8        30.11R
GRAND FORKS AF CLEAR     61  41  48 S7        30.12R
GRAND CITY NWS   N/A     63 N/A N/A S5          N/A
BUXTON           N/A     65  44  47 SE3         N/A
DEVILS LAKE    CLEAR     61  43  51 SE7       30.11S
FARGO          PTCLDY    66  40  38 SE6       30.13R
WAHPETON ARPT  PTCLDY    63  34  34 SE5       30.14S
$$

 *****  WEATHER ACROSS CENTRAL AND WESTERN NORTH DAKOTA  *****

CITY           SKY/WX    TMP DP  RH WIND       PRES   REMARKS
JAMESTOWN      PTCLDY    60  40  47 SE9       30.11R
BISMARCK       PTCLDY    55  42  61 SE7       30.09R
MINOT          MOCLDY    61  38  42 CALM      30.07R
MINOT AFB      PTCLDY    63  36  36 S8        30.06R
GARRISON         N/A     62  40  44 S3        30.08R
WILLISTON      PTCLDY    66  34  30 SE6       30.04R
DICKINSON      PTCLDY    54  35  48 SE12      30.06R
HETTINGER      MOCLDY    55  35  47 SE9       30.09R
$$

 *****  OTHER OBSERVATIONS NORTHEAST NORTH DAKOTA  *****

CITY           SKY/WX    TMP DP  RH WIND       PRES   REMARKS
WALHALLA       FAIR      63  37  39 SW5       30.11R
LANGDON        FAIR      54  37  54 S8        30.13R
CAVALIER       FAIR      66  41  39 SW6       30.10R
GRAFTON        FAIR      57  46  67 S10       30.12R
CANDO          FAIR      55  41  58 SE9       30.12R
FORT TOTTEN      N/A     64  31  29 SE6       29.95
ROLLA          FAIR      59  34  38 S7        30.12R
RUGBY          NOT AVBL
 ***** THE ABOVE OBSERVATIONS ARE NON NWS ARE NOT QUALITY
        CONTROLLED AND MAY MIS-REPORT RAIN FOR SNOW...
$$

 *****  OTHER OBSERVATIONS SOUTHEAST NORTH DAKOTA *****

CITY           SKY/WX    TMP DP  RH WIND       PRES   REMARKS
COOPERSTOWN    NOT AVBL
VALLEY CITY    FAIR      57  36  44 S5        30.13R
OAKES            N/A     57  45  62 E12       30.12R
GWINNER        NOT AVBL
SHEYENNE NWR     N/A     60  39  45 E3        29.95S
BUFFALO        NOT AVBL
WYNDMERE         N/A     64  34  32 SE5         N/A
 ***** THE ABOVE OBSERVATIONS ARE NON NWS ARE NOT QUALITY
       CONTROLLED AND MAY MIS-REPORT RAIN FOR SNOW...
$$

  *****  WEATHER ACROSS NORTHERN MINNESOTA  *****

CITY           SKY/WX    TMP DP  RH WIND       PRES   REMARKS
FLAG ISLAND    NOT AVBL
WARROAD        PTCLDY    64  45  48 SW6       30.11R
ROSEAU         PTCLDY    63  45  51 SW8       30.11R
HALLOCK        PTCLDY    61  45  55 S7        30.10R
THF RVR FALLS  CLEAR     63  37  39 CALM      30.14R
HALSTAD          N/A     63  36  36 S7          N/A
FOSSTON        CLEAR     55  39  54 SW5       30.16R
BAUDETTE       CLEAR     61  42  49 CALM      30.11R
WASKISH        CLEAR     64  41  42 CALM      30.13S
CROOKSTON      CLEAR     61  39  44 SW5       30.14R
$$
  *****  WEATHER ACROSS CENTRAL AND WEST MINNESOTA  *****

CITY           SKY/WX    TMP DP  RH WIND       PRES   REMARKS
BEMIDJI        CLEAR     58  40  50 S3        30.15R
PARK RAPIDS    CLEAR     62  39  42 S6        30.16R
WADENA         CLEAR     57  43  58 CALM      30.17S
DETROIT LAKES  CLEAR     61  43  51 CALM      30.18R
MOORHEAD       PTCLDY    64  39  39 SE3       30.15R
FERGUS FALLS   PTCLDY    64  36  34 SE6       30.16R
ELBOW LAKE     FAIR      62  43  49 E5        30.16R
MORRIS MN      MOCLDY    59  43  55 E8        30.15R
STAPLES        CLEAR     59  37  44 CALM      30.18S
WHEATON        MOCLDY    55  43  62 SE6       30.16S
$$
  *****  WEATHER ELSEWHERE ACROSS MINNESOTA  *****

CITY           SKY/WX    TMP DP  RH WIND       PRES   REMARKS
DULUTH         CLEAR     59  36  42 SW5       30.18R
INTRNTL FALLS  PTCLDY    53  43  68 W3        30.11R
ELY            CLEAR     57  34  41 SW5       30.14R
CLOQUET        CLEAR     54  37  54 CALM      30.18S
BRAINERD       CLEAR     57  40  52 CALM      30.18R
HIBBING        CLEAR     50  36  58 CALM      30.15R
ALEXANDRIA     PTCLDY    61  37  41 E7        30.18S
SAINT CLOUD    PTCLDY    55  43  63 E5        30.19R
MINNEAPOLIS    MOCLDY    67  37  33 NE3       30.19R
$$

  *****  WEATHER ACROSS SOUTH DAKOTA  *****

CITY           SKY/WX    TMP DP  RH WIND       PRES   REMARKS
SIOUX FALLS    CLOUDY    59  42  53 CALM      30.19S
BROOKINGS      CLOUDY    57  43  58 SW7       30.22R
WATERTOWN      CLOUDY    58  43  57 SW12      30.18R
HURON          PTCLDY    55  42  61 S7        30.18R
SISSETON         N/A     61  37  41 SE6       30.13R
ABERDEEN       CLOUDY    61  44  53 SW10      30.13R
MITCHELL       MOCLDY    56  44  64 CALM      30.18S
PIERRE         MOCLDY    54  42  64 S16       30.14R
MOBRIDGE       MOCLDY    58  42  55 S5        30.09R
RAPID CITY     CLOUDY    50  42  74 SE13      30.09S
$$

  *****  SOME WEATHER IN NEARBY STATES *****

CITY           SKY/WX    TMP DP  RH WIND       PRES   REMARKS
GLASGOW MT     PTCLDY    62  41  46 E9        29.97R
GREAT FALLS MT PTCLDY    58  47  66 E7        29.93R
CHEYENNE WY    CLOUDY    45  43  93 SE10      30.04F
SCOTTSBLUFF NE CLOUDY    47  45  93 SE16      30.07R
OMAHA NE       CLOUDY    61  48  62 SE7       30.19R
DES MOINES IA  CLOUDY    64  47  53 S3        30.22R
DAVENPORT IA   CLOUDY    63  41  44 NE5       30.23R
CHICAGO IL     CLOUDY    53  29  39 E7        30.28R
EAU CLAIRE WI  MOCLDY    54  39  57 CALM      30.21R
LA CROSSE WI   MOCLDY    62  43  49 CALM      30.21R
$$

  *****  SOME NATIONAL WEATHER *****

CITY           SKY/WX    TMP DP  RH WIND       PRES   REMARKS
LA GUARDIA NY  PTCLDY    63  33  32 NW21      30.11R
RALEIGH NC     PTCLDY    54  48  80 CALM      30.28R
ATLANTA GA     CLEAR     71  52  50 N5        30.26R
NEW ORLEANS LA PTCLDY    75  67  76 SE5       30.17R
OKLAHOMA CITY  DRIZZLE   56  54  93 SE10      30.14S
ALBUQUERQUE NM PTCLDY    68  30  24 SE17      29.91S
SALT LAKE CITY MOCLDY    59  41  51 S13       29.89R
LOS ANGELES CA CLOUDY    61  54  77 SW10      30.05R
BOISE ID       MOCLDY    65  49  56 CALM      29.81R
SEATTLE WA     MOCLDY    57  50  77 SW8       30.03S
$$

*** WEATHER ACROSS MANITOBA...SASKATCHEWAN AND ONTARIO ***
                ***ONTARIO***

CITY           SKY/WX    TMP DP  RH WIND       PRES   REMARKS
GERALDTON      PTCLDY    45  25  45 S6        30.12S
THUNDER BAY    CLEAR     45  27  49 VRB2      30.14F
SIOUX LOOKOUT  PTCLDY    64  41  42 VRB2      30.02R
TORONTO        CLEAR     43  23  45 N9        30.31R
BIG TROUT LK   CLEAR     48  32  53 S5        29.89F
PICKLE LAKE    NOT AVBL
DRYDEN         MOCLDY    63  45  51 SW10      30.06F
KENORA         MOCLDY    66  39  37 SW10      30.08R
$$
                *** MANITOBA***

CITY           SKY/WX    TMP DP  RH WIND       PRES   REMARKS
BRANDON        PTCLDY    68  36  30 S6        30.08R
DAUPHIN        CLEAR     68  36  30 SW10      30.02R
ISLAND LAKE    PTCLDY    57  37  47 W5        29.93R
PILOT MOUND      N/A     55  36  47 S9          N/A
THE PAS        CLOUDY    72  36  26 W13G18    29.92R
THOMPSON       MOCLDY    57  43  58 NW6       29.93R
WINNIPEG       MOCLDY    68  41  37 SW7       30.07R
LYNN LAKE      CLOUDY    57  39  51 NE15G23   30.01R
CHURCHILL      SNOWSHWR  32  32 100 N16       30.10R FOG     WCI  21
GILLAM         CLOUDY    37  34  87 NE17      30.03R
$$
                ***SASKATCHEWAN***

CITY           SKY/WX    TMP DP  RH WIND       PRES   REMARKS
ESTEVAN        MOCLDY    59  41  51 S7        30.07
KINDERSLEY     PTCLDY    64  25  22 SE10      30.01R
LLOYDMINSTER   PTCLDY    70  23  17 E2        30.00R
PRINCE ALBERT  PTCLDY    68  41  37 SW3       29.98R
REGINA         PTCLDY    64  36  34 S6        30.04R


USA.gov is the U.S. government's official web portal to all federal, state and local government web resources and services.